RYR284X EGSS-LIMJ

Flight info

Callsign RYR284X
Flight time 2h 10m
Altitude 23000
Route NUGBO M183 SILVA Q41 COWLY L612 MID/N0431F350 UL612 OGULO DCT OKASI DCT OKEKO DCT MOU DCT MADIV DCT MOKIP DCT TUFTA DCT GEVEA/N0416F330 DCT MOBLO DCT LURAG DCT OBUXA DCT TOP M730 TESTO TEST1N
Aircraft B738/M-SDE3FGILRWY/SB1

Departure

Time 2026-04-21 18:20
Airport London Stansted Airport (EGSS)

Arrival

Time 2026-04-21 20:31
Airport Genoa Cristoforo Colombo Airport (LIMJ)
Time Latitude Longitude Altitude Speed Heading
2026-04-21 17:45 51.89213 0.26003 355 ft 0 kts 43°
2026-04-21 18:04 51.89209 0.25996 360 ft 2 kts 44°
2026-04-21 18:04 51.89196 0.25973 359 ft 3 kts 55°
2026-04-21 18:04 51.89186 0.25951 357 ft 3 kts 17°
2026-04-21 18:05 51.89174 0.25953 360 ft 2 kts 317°
2026-04-21 18:05 51.89166 0.25965 359 ft 2 kts 313°
2026-04-21 18:05 51.89157 0.25982 357 ft 1 kts 313°
2026-04-21 18:05 51.89156 0.25982 357 ft 0 kts 313°
2026-04-21 18:08 51.89161 0.25975 351 ft 4 kts 313°
2026-04-21 18:08 51.89200 0.25906 358 ft 10 kts 313°
2026-04-21 18:08 51.89249 0.25822 359 ft 10 kts 313°
2026-04-21 18:08 51.89296 0.25739 351 ft 10 kts 313°
2026-04-21 18:09 51.89334 0.25673 359 ft 1 kts 312°
2026-04-21 18:09 51.89337 0.25667 354 ft 0 kts 313°
2026-04-21 18:09 51.89339 0.25664 354 ft 1 kts 313°
2026-04-21 18:10 51.89367 0.25598 357 ft 11 kts 283°
2026-04-21 18:10 51.89319 0.25491 360 ft 12 kts 222°
2026-04-21 18:10 51.89251 0.25392 354 ft 13 kts 223°
2026-04-21 18:10 51.89224 0.25351 354 ft 2 kts 222°
2026-04-21 18:11 51.89204 0.25322 355 ft 7 kts 222°
2026-04-21 18:11 51.89149 0.25237 351 ft 15 kts 223°
2026-04-21 18:11 51.89033 0.25064 356 ft 28 kts 223°
2026-04-21 18:11 51.88888 0.24845 360 ft 28 kts 223°
2026-04-21 18:12 51.88750 0.24639 350 ft 26 kts 223°
2026-04-21 18:12 51.88621 0.24446 346 ft 24 kts 223°
2026-04-21 18:12 51.88491 0.24250 344 ft 29 kts 223°
2026-04-21 18:12 51.88337 0.24019 353 ft 29 kts 223°
2026-04-21 18:13 51.88194 0.23804 344 ft 28 kts 223°
2026-04-21 18:13 51.88053 0.23594 337 ft 27 kts 223°
2026-04-21 18:13 51.87920 0.23392 336 ft 27 kts 223°
2026-04-21 18:13 51.87771 0.23170 339 ft 24 kts 223°
2026-04-21 18:14 51.87730 0.22810 334 ft 18 kts 222°
2026-04-21 18:14 51.87622 0.22649 335 ft 24 kts 223°
2026-04-21 18:14 51.87518 0.22472 329 ft 15 kts 260°
2026-04-21 18:15 51.87564 0.22348 324 ft 13 kts 314°
2026-04-21 18:15 51.87574 0.22333 322 ft 0 kts 314°
2026-04-21 18:18 51.87583 0.22317 323 ft 6 kts 316°
2026-04-21 18:19 51.87647 0.22257 323 ft 14 kts 343°
2026-04-21 18:19 51.87717 0.22303 325 ft 0 kts 44°
2026-04-21 18:19 51.87750 0.22354 328 ft 26 kts 44°
2026-04-21 18:20 51.88058 0.22818 332 ft 93 kts 43°
2026-04-21 18:20 51.88674 0.23744 366 ft 144 kts 42°
2026-04-21 18:20 51.89442 0.24855 909 ft 152 kts 43°
2026-04-21 18:20 51.90235 0.25963 1763 ft 146 kts 44°
2026-04-21 18:21 51.91016 0.27077 2422 ft 157 kts 45°
2026-04-21 18:21 51.91895 0.28351 2857 ft 179 kts 45°
2026-04-21 18:21 51.92971 0.29456 3406 ft 192 kts 23°
2026-04-21 18:21 51.94400 0.29661 3615 ft 227 kts 356°
2026-04-21 18:22 51.95940 0.28716 4026 ft 253 kts 330°
2026-04-21 18:22 51.97065 0.26369 4518 ft 279 kts 291°
2026-04-21 18:22 51.97502 0.23278 5000 ft 283 kts 279°
2026-04-21 18:22 51.97747 0.20114 4998 ft 284 kts 279°
2026-04-21 18:23 51.97988 0.16884 5424 ft 290 kts 277°
2026-04-21 18:23 51.98239 0.13655 6368 ft 288 kts 279°
2026-04-21 18:23 51.98544 0.10419 7174 ft 292 kts 280°
2026-04-21 18:23 51.98874 0.07154 7910 ft 296 kts 278°
2026-04-21 18:24 51.98765 0.03813 8668 ft 299 kts 256°
2026-04-21 18:24 51.98295 0.00519 9472 ft 301 kts 256°
2026-04-21 18:24 51.97844 -0.02825 10233 ft 305 kts 257°
2026-04-21 18:24 51.97395 -0.06259 10689 ft 320 kts 257°
2026-04-21 18:25 51.96922 -0.09908 10863 ft 343 kts 257°
2026-04-21 18:25 51.96416 -0.13785 11258 ft 356 kts 257°
2026-04-21 18:25 51.95899 -0.17747 11852 ft 363 kts 257°
2026-04-21 18:25 51.95375 -0.21764 12561 ft 366 kts 257°
2026-04-21 18:26 51.94843 -0.25823 13268 ft 370 kts 258°
2026-04-21 18:26 51.94308 -0.29901 14144 ft 369 kts 258°
2026-04-21 18:26 51.93786 -0.33874 15055 ft 366 kts 258°
2026-04-21 18:26 51.93239 -0.38019 15680 ft 373 kts 258°
2026-04-21 18:27 51.92697 -0.42112 16239 ft 380 kts 258°
2026-04-21 18:27 51.92134 -0.46352 17048 ft 381 kts 258°
2026-04-21 18:27 51.91572 -0.50571 17833 ft 382 kts 258°
2026-04-21 18:27 51.91017 -0.54727 18743 ft 378 kts 258°
2026-04-21 18:28 51.90463 -0.58850 19677 ft 370 kts 261°
2026-04-21 18:28 51.89928 -0.62824 20712 ft 360 kts 260°
2026-04-21 18:28 51.89400 -0.66738 21688 ft 353 kts 262°
2026-04-21 18:28 51.88879 -0.70596 22530 ft 350 kts 262°
2026-04-21 18:29 51.88353 -0.74491 23142 ft 350 kts 263°
2026-04-21 18:29 51.87840 -0.78291 23344 ft 351 kts 263°
2026-04-21 18:29 51.87318 -0.82137 23311 ft 348 kts 263°
2026-04-21 18:29 51.86799 -0.85938 23318 ft 344 kts 263°
2026-04-21 18:30 51.86281 -0.89722 23337 ft 345 kts 263°
2026-04-21 18:30 51.85753 -0.93520 23318 ft 347 kts 260°
2026-04-21 18:30 51.84731 -0.97110 23306 ft 361 kts 239°
2026-04-21 18:30 51.82897 -0.99968 23308 ft 375 kts 220°
2026-04-21 18:31 51.80495 -1.01725 23294 ft 388 kts 198°
2026-04-21 18:31 51.77827 -1.02504 23283 ft 390 kts 194°
2026-04-21 18:31 51.75141 -1.03126 23269 ft 390 kts 194°
2026-04-21 18:31 51.72459 -1.03736 23260 ft 388 kts 194°
2026-04-21 18:32 51.69792 -1.04386 23258 ft 387 kts 195°
2026-04-21 18:32 51.67138 -1.05063 23265 ft 385 kts 195°
2026-04-21 18:32 51.64490 -1.05717 23262 ft 387 kts 191°
2026-04-21 18:32 51.61777 -1.05503 23263 ft 397 kts 171°
2026-04-21 18:33 51.59186 -1.03914 23273 ft 403 kts 151°
2026-04-21 18:33 51.56879 -1.01349 23274 ft 404 kts 145°
2026-04-21 18:33 51.54615 -0.98648 23260 ft 405 kts 144°
2026-04-21 18:33 51.52347 -0.95960 23288 ft 405 kts 145°
2026-04-21 18:34 51.50055 -0.93308 23302 ft 406 kts 145°
2026-04-21 18:34 51.47748 -0.90675 23296 ft 408 kts 146°
2026-04-21 18:34 51.45402 -0.88120 23286 ft 408 kts 151°
2026-04-21 18:34 51.42860 -0.86147 23293 ft 406 kts 160°
2026-04-21 18:35 51.41108 -0.85030 23332 ft 413 kts 161°
2026-04-21 18:35 51.37443 -0.82764 23511 ft 433 kts 162°
2026-04-21 18:35 51.34581 -0.80996 23638 ft 447 kts 161°
2026-04-21 18:35 51.31638 -0.79155 23753 ft 461 kts 161°
2026-04-21 18:36 51.28614 -0.77244 23855 ft 474 kts 161°
2026-04-21 18:36 51.25512 -0.75271 23950 ft 486 kts 161°
2026-04-21 18:36 51.22344 -0.73252 24095 ft 495 kts 161°
2026-04-21 18:36 51.19128 -0.71201 24316 ft 501 kts 161°
2026-04-21 18:37 51.15883 -0.69136 24697 ft 502 kts 161°
2026-04-21 18:37 51.12646 -0.67080 25190 ft 501 kts 161°
2026-04-21 18:37 51.09458 -0.65062 25730 ft 498 kts 161°
2026-04-21 18:37 51.06255 -0.63000 26298 ft 496 kts 159°
2026-04-21 18:38 51.03209 -0.60433 26835 ft 497 kts 149°
2026-04-21 18:38 51.00349 -0.57373 27368 ft 495 kts 147°
2026-04-21 18:38 50.97522 -0.54269 27859 ft 494 kts 147°
2026-04-21 18:38 50.94695 -0.51170 28318 ft 494 kts 147°
2026-04-21 18:39 50.91863 -0.48101 28833 ft 493 kts 148°
2026-04-21 18:39 50.89026 -0.45064 29372 ft 491 kts 148°
2026-04-21 18:39 50.86194 -0.42056 29910 ft 488 kts 148°
2026-04-21 18:39 50.83380 -0.39083 30484 ft 485 kts 149°
2026-04-21 18:40 50.80576 -0.36124 30895 ft 484 kts 149°
2026-04-21 18:40 50.77775 -0.33174 31269 ft 484 kts 149°
2026-04-21 18:40 50.75923 -0.31223 31527 ft 483 kts 149°
2026-04-21 18:40 50.72184 -0.27287 32081 ft 481 kts 149°
2026-04-21 18:41 50.69408 -0.24370 32516 ft 479 kts 149°
2026-04-21 18:41 50.66636 -0.21463 32908 ft 478 kts 149°
2026-04-21 18:41 50.63870 -0.18566 33259 ft 478 kts 149°
2026-04-21 18:41 50.61105 -0.15674 33655 ft 476 kts 149°
2026-04-21 18:42 50.58347 -0.12792 34040 ft 475 kts 149°
2026-04-21 18:42 50.55599 -0.09924 34388 ft 474 kts 149°
2026-04-21 18:42 50.52859 -0.07068 34726 ft 472 kts 149°
2026-04-21 18:42 50.50129 -0.04225 35057 ft 470 kts 149°
2026-04-21 18:43 50.47406 -0.01395 35265 ft 471 kts 149°
2026-04-21 18:43 50.41890 0.04332 35226 ft 475 kts 149°
2026-04-21 18:44 50.36416 0.10019 35229 ft 471 kts 149°
2026-04-21 18:44 50.30956 0.15684 35233 ft 470 kts 149°
2026-04-21 18:45 50.25507 0.21327 35225 ft 470 kts 149°
2026-04-21 18:45 50.20051 0.26961 35221 ft 470 kts 149°
2026-04-21 18:46 50.14590 0.32570 35208 ft 470 kts 150°
2026-04-21 18:46 50.09125 0.38166 35214 ft 470 kts 150°
2026-04-21 18:47 50.03688 0.43720 35207 ft 471 kts 150°
2026-04-21 18:47 49.98205 0.49308 35212 ft 472 kts 149°
2026-04-21 18:48 49.92710 0.54895 35197 ft 472 kts 150°
2026-04-21 18:48 49.87205 0.60475 35195 ft 473 kts 150°
2026-04-21 18:49 49.81874 0.66511 35198 ft 476 kts 143°
2026-04-21 18:49 49.77627 0.71963 35191 ft 477 kts 142°
2026-04-21 18:50 49.71655 0.79632 35180 ft 478 kts 143°
2026-04-21 18:50 49.66497 0.86121 35181 ft 478 kts 143°
2026-04-21 18:51 49.61326 0.92568 35190 ft 478 kts 143°
2026-04-21 18:51 49.56163 0.98984 35182 ft 478 kts 143°
2026-04-21 18:52 49.50974 1.05422 35168 ft 478 kts 144°
2026-04-21 18:52 49.45799 1.11829 35184 ft 477 kts 144°
2026-04-21 18:53 49.40621 1.18218 35185 ft 477 kts 144°
2026-04-21 18:53 49.35446 1.24585 35186 ft 477 kts 144°
2026-04-21 18:54 49.30305 1.30895 35188 ft 476 kts 144°
2026-04-21 18:54 49.25132 1.37230 35180 ft 477 kts 144°
2026-04-21 18:55 49.20787 1.42536 35168 ft 477 kts 144°
2026-04-21 18:55 49.14749 1.49892 35165 ft 478 kts 144°
2026-04-21 18:56 49.09538 1.56221 35162 ft 479 kts 144°
2026-04-21 18:56 49.04320 1.62542 35149 ft 479 kts 144°
2026-04-21 18:57 48.99990 1.67773 35155 ft 479 kts 144°
2026-04-21 18:57 48.94759 1.74078 35161 ft 479 kts 144°
2026-04-21 18:58 48.89534 1.80357 35154 ft 480 kts 144°
2026-04-21 18:58 48.84291 1.86640 35156 ft 480 kts 144°
2026-04-21 18:59 48.79041 1.92915 35160 ft 480 kts 144°
2026-04-21 18:59 48.73786 1.99180 35156 ft 481 kts 144°
2026-04-21 19:00 48.68523 2.05437 35157 ft 481 kts 144°
2026-04-21 19:00 48.63254 2.11686 35138 ft 481 kts 144°
2026-04-21 19:01 48.57988 2.17914 35170 ft 481 kts 144°
2026-04-21 19:01 48.53021 2.24747 35163 ft 484 kts 136°
2026-04-21 19:02 48.48337 2.32040 35156 ft 484 kts 136°
2026-04-21 19:02 48.43620 2.39296 35150 ft 484 kts 136°
2026-04-21 19:03 48.38860 2.46476 35143 ft 484 kts 137°
2026-04-21 19:03 48.34098 2.53619 35135 ft 484 kts 137°
2026-04-21 19:04 48.29054 2.60212 35143 ft 478 kts 153°
2026-04-21 19:04 48.23256 2.65046 35139 ft 477 kts 156°
2026-04-21 19:05 48.17423 2.69783 35116 ft 477 kts 156°
2026-04-21 19:05 48.11600 2.74581 35124 ft 478 kts 155°
2026-04-21 19:06 48.05791 2.79410 35123 ft 478 kts 155°
2026-04-21 19:06 48.00005 2.84220 35110 ft 479 kts 155°
2026-04-21 19:07 47.94152 2.89073 35105 ft 478 kts 155°
2026-04-21 19:07 47.88377 2.93845 35103 ft 477 kts 155°
2026-04-21 19:08 47.82566 2.98634 35106 ft 477 kts 155°
2026-04-21 19:08 47.76755 3.03409 35104 ft 477 kts 155°
2026-04-21 19:09 47.70943 3.08173 35087 ft 477 kts 155°
2026-04-21 19:09 47.65140 3.12918 35087 ft 476 kts 156°
2026-04-21 19:10 47.59329 3.17658 35087 ft 476 kts 156°
2026-04-21 19:10 47.53556 3.22448 35074 ft 479 kts 150°
2026-04-21 19:11 47.48622 3.29129 35079 ft 485 kts 131°
2026-04-21 19:11 47.44375 3.36872 35090 ft 486 kts 130°
2026-04-21 19:12 47.40116 3.44643 35082 ft 486 kts 130°
2026-04-21 19:12 47.35821 3.52350 35082 ft 487 kts 131°
2026-04-21 19:13 47.31496 3.60032 35052 ft 486 kts 131°
2026-04-21 19:13 47.27167 3.67688 35073 ft 486 kts 131°
2026-04-21 19:14 47.22838 3.75327 35075 ft 486 kts 131°
2026-04-21 19:14 47.18507 3.82952 35075 ft 486 kts 131°
2026-04-21 19:15 47.14164 3.90577 35063 ft 486 kts 131°
2026-04-21 19:15 47.09817 3.98188 35067 ft 486 kts 131°
2026-04-21 19:16 47.05469 4.05778 35061 ft 486 kts 131°
2026-04-21 19:16 47.01111 4.13365 35072 ft 486 kts 131°
2026-04-21 19:17 46.94602 4.24659 35062 ft 486 kts 132°
2026-04-21 19:17 46.90232 4.32215 35059 ft 487 kts 132°
2026-04-21 19:18 46.85853 4.39765 35056 ft 487 kts 132°
2026-04-21 19:18 46.81469 4.47305 35047 ft 487 kts 132°
2026-04-21 19:19 46.77081 4.54828 35063 ft 488 kts 132°
2026-04-21 19:19 46.72676 4.62361 35053 ft 488 kts 132°
2026-04-21 19:20 46.68262 4.69890 35044 ft 489 kts 132°
2026-04-21 19:20 46.63839 4.77412 35048 ft 489 kts 132°
2026-04-21 19:21 46.59410 4.84925 35047 ft 489 kts 132°
2026-04-21 19:21 46.54970 4.92436 35036 ft 490 kts 132°
2026-04-21 19:22 46.50528 4.99934 35025 ft 490 kts 132°
2026-04-21 19:22 46.46238 5.07634 35016 ft 492 kts 122°
2026-04-21 19:23 46.43415 5.16588 35009 ft 488 kts 103°
2026-04-21 19:23 46.41735 5.26105 35026 ft 487 kts 101°
2026-04-21 19:24 46.40026 5.35603 35018 ft 488 kts 102°
2026-04-21 19:24 46.38243 5.45080 35019 ft 487 kts 102°
2026-04-21 19:25 46.36477 5.54559 35014 ft 488 kts 102°
2026-04-21 19:25 46.34714 5.64029 35035 ft 488 kts 102°
2026-04-21 19:26 46.32939 5.73514 35033 ft 488 kts 102°
2026-04-21 19:26 46.31154 5.82981 35025 ft 488 kts 102°
2026-04-21 19:27 46.29361 5.92447 35015 ft 489 kts 102°
2026-04-21 19:27 46.27558 6.01925 35047 ft 488 kts 102°
2026-04-21 19:28 46.25321 6.11131 35017 ft 492 kts 118°
2026-04-21 19:28 46.21278 6.19024 35020 ft 490 kts 139°
2026-04-21 19:29 46.16252 6.25663 35012 ft 489 kts 141°
2026-04-21 19:29 46.11207 6.32247 35012 ft 490 kts 140°
2026-04-21 19:30 46.06194 6.38891 35010 ft 490 kts 140°
2026-04-21 19:30 46.01179 6.45577 34997 ft 492 kts 140°
2026-04-21 19:31 45.96164 6.52249 34788 ft 489 kts 140°
2026-04-21 19:31 45.93675 6.55556 34478 ft 484 kts 140°
2026-04-21 19:31 45.91207 6.58834 34104 ft 482 kts 140°
2026-04-21 19:32 45.88747 6.62080 33671 ft 480 kts 140°
2026-04-21 19:32 45.86304 6.65304 33268 ft 477 kts 140°
2026-04-21 19:32 45.83865 6.68522 32866 ft 474 kts 140°
2026-04-21 19:32 45.81449 6.71707 32508 ft 472 kts 140°
2026-04-21 19:33 45.79846 6.73814 32256 ft 470 kts 140°
2026-04-21 19:33 45.76618 6.78027 31684 ft 468 kts 140°
2026-04-21 19:33 45.74214 6.81156 31313 ft 466 kts 140°
2026-04-21 19:33 45.71824 6.84261 30929 ft 461 kts 140°
2026-04-21 19:34 45.69473 6.87316 30577 ft 452 kts 140°
2026-04-21 19:34 45.67178 6.90297 30390 ft 440 kts 140°
2026-04-21 19:34 45.64935 6.93211 30160 ft 430 kts 140°
2026-04-21 19:34 45.62748 6.96050 29896 ft 420 kts 140°
2026-04-21 19:35 45.60594 6.98839 29640 ft 416 kts 140°
2026-04-21 19:35 45.56332 7.04342 29076 ft 410 kts 140°
2026-04-21 19:35 45.54217 7.07074 28757 ft 408 kts 139°
2026-04-21 19:36 45.52284 7.10024 28452 ft 406 kts 127°
2026-04-21 19:36 45.50730 7.13359 28214 ft 403 kts 121°
2026-04-21 19:36 45.49272 7.16765 27912 ft 401 kts 120°
2026-04-21 19:36 45.47831 7.20144 27664 ft 398 kts 120°
2026-04-21 19:37 45.46383 7.23500 27385 ft 397 kts 121°
2026-04-21 19:37 45.44931 7.26823 27127 ft 394 kts 121°
2026-04-21 19:37 45.43480 7.30123 26902 ft 392 kts 121°
2026-04-21 19:37 45.42012 7.33394 26628 ft 392 kts 126°
2026-04-21 19:38 45.40337 7.36426 26381 ft 390 kts 131°
2026-04-21 19:38 45.38566 7.39338 26116 ft 387 kts 133°
2026-04-21 19:38 45.37391 7.41226 25944 ft 385 kts 133°
2026-04-21 19:38 45.35021 7.45025 25584 ft 383 kts 133°
2026-04-21 19:39 45.33265 7.47862 25344 ft 382 kts 133°
2026-04-21 19:39 45.31514 7.50703 25086 ft 382 kts 132°
2026-04-21 19:39 45.29763 7.53557 24844 ft 383 kts 132°
2026-04-21 19:39 45.28016 7.56419 24598 ft 383 kts 132°
2026-04-21 19:40 45.26302 7.59230 24366 ft 381 kts 132°
2026-04-21 19:40 45.24572 7.62067 24125 ft 380 kts 132°
2026-04-21 19:40 45.22848 7.64896 23889 ft 378 kts 132°
2026-04-21 19:40 45.21132 7.67709 23655 ft 376 kts 132°
2026-04-21 19:41 45.19424 7.70505 23404 ft 374 kts 132°
2026-04-21 19:41 45.17725 7.73285 23135 ft 373 kts 132°
2026-04-21 19:41 45.16031 7.76054 22867 ft 371 kts 132°
2026-04-21 19:41 45.14343 7.78810 22598 ft 370 kts 132°
2026-04-21 19:42 45.12661 7.81553 22334 ft 368 kts 132°
2026-04-21 19:42 45.10982 7.84289 22050 ft 367 kts 132°
2026-04-21 19:42 45.09306 7.87017 21783 ft 365 kts 132°
2026-04-21 19:42 45.07647 7.89715 21506 ft 362 kts 132°
2026-04-21 19:43 45.05998 7.92395 21251 ft 359 kts 132°
2026-04-21 19:43 45.04363 7.95048 20998 ft 356 kts 133°
2026-04-21 19:43 45.02742 7.97678 20743 ft 353 kts 133°
2026-04-21 19:43 45.01140 8.00273 20482 ft 350 kts 133°
2026-04-21 19:44 44.99541 8.02862 20228 ft 347 kts 133°
2026-04-21 19:44 44.98492 8.04558 20088 ft 346 kts 133°
2026-04-21 19:44 44.96915 8.07108 19834 ft 345 kts 133°
2026-04-21 19:44 44.95330 8.09666 19605 ft 346 kts 133°
2026-04-21 19:45 44.93742 8.12226 19372 ft 347 kts 133°
2026-04-21 19:45 44.92150 8.14792 19137 ft 348 kts 133°
2026-04-21 19:45 44.90555 8.17360 18905 ft 348 kts 133°
2026-04-21 19:45 44.88959 8.19927 18652 ft 348 kts 133°
2026-04-21 19:46 44.87364 8.22492 18410 ft 347 kts 133°
2026-04-21 19:46 44.85778 8.25039 18158 ft 344 kts 133°
2026-04-21 19:46 44.84204 8.27565 17893 ft 342 kts 133°
2026-04-21 19:46 44.82642 8.30069 17620 ft 339 kts 133°
2026-04-21 19:47 44.81092 8.32552 17362 ft 336 kts 133°
2026-04-21 19:47 44.79557 8.35009 17095 ft 333 kts 133°
2026-04-21 19:47 44.78031 8.37449 16834 ft 330 kts 133°
2026-04-21 19:47 44.76517 8.39867 16576 ft 328 kts 133°
2026-04-21 19:48 44.75017 8.42261 16330 ft 325 kts 133°
2026-04-21 19:48 44.73527 8.44637 16076 ft 323 kts 133°
2026-04-21 19:48 44.72048 8.46994 15821 ft 320 kts 133°
2026-04-21 19:48 44.70578 8.49336 15575 ft 318 kts 133°
2026-04-21 19:49 44.69116 8.51660 15319 ft 316 kts 133°
2026-04-21 19:49 44.67666 8.53967 15072 ft 314 kts 133°
2026-04-21 19:49 44.66224 8.56257 14969 ft 313 kts 133°
2026-04-21 19:49 44.64785 8.58544 14951 ft 313 kts 133°
2026-04-21 19:50 44.63340 8.60834 14934 ft 312 kts 133°
2026-04-21 19:50 44.61901 8.63112 14954 ft 312 kts 133°
2026-04-21 19:50 44.60455 8.65401 14818 ft 317 kts 133°
2026-04-21 19:50 44.59064 8.67823 14557 ft 319 kts 123°
2026-04-21 19:51 44.57952 8.70507 14343 ft 317 kts 119°
2026-04-21 19:51 44.56890 8.73204 14110 ft 314 kts 119°
2026-04-21 19:51 44.55826 8.75859 13872 ft 310 kts 124°
2026-04-21 19:51 44.54381 8.78037 13688 ft 303 kts 143°
2026-04-21 19:52 44.52727 8.79842 13412 ft 300 kts 145°
2026-04-21 19:52 44.51073 8.81612 13150 ft 298 kts 145°
2026-04-21 19:52 44.49436 8.83386 12883 ft 296 kts 144°
2026-04-21 19:52 44.47819 8.85161 12636 ft 295 kts 144°
2026-04-21 19:53 44.46218 8.86941 12363 ft 293 kts 144°
2026-04-21 19:53 44.44651 8.88697 12109 ft 291 kts 143°
2026-04-21 19:53 44.43080 8.90462 11862 ft 289 kts 143°
2026-04-21 19:53 44.41512 8.92227 11610 ft 288 kts 143°
2026-04-21 19:54 44.39961 8.93974 11356 ft 286 kts 143°
2026-04-21 19:54 44.38415 8.95718 11108 ft 284 kts 143°
2026-04-21 19:54 44.36884 8.97444 10858 ft 282 kts 143°
2026-04-21 19:54 44.35362 8.99161 10614 ft 280 kts 143°
2026-04-21 19:55 44.33853 9.00862 10372 ft 278 kts 143°
2026-04-21 19:55 44.32350 9.02554 10133 ft 276 kts 143°
2026-04-21 19:55 44.30859 9.04230 9893 ft 274 kts 142°
2026-04-21 19:55 44.29375 9.05898 9642 ft 273 kts 142°
2026-04-21 19:56 44.27889 9.07527 9382 ft 271 kts 144°
2026-04-21 19:56 44.26395 9.09111 9126 ft 269 kts 144°
2026-04-21 19:56 44.24908 9.10681 8854 ft 267 kts 144°
2026-04-21 19:56 44.23430 9.12243 8596 ft 266 kts 144°
2026-04-21 19:57 44.21960 9.13799 8337 ft 264 kts 144°
2026-04-21 19:57 44.20502 9.15340 8087 ft 262 kts 145°
2026-04-21 19:57 44.18869 9.16398 7816 ft 258 kts 169°
2026-04-21 19:57 44.17118 9.16847 7585 ft 255 kts 173°
2026-04-21 19:58 44.15368 9.17218 7333 ft 254 kts 173°
2026-04-21 19:58 44.13623 9.17574 7104 ft 252 kts 173°
2026-04-21 19:58 44.11901 9.17918 7040 ft 249 kts 173°
2026-04-21 19:58 44.10191 9.18256 6970 ft 247 kts 173°
2026-04-21 19:59 44.08494 9.18588 6737 ft 246 kts 173°
2026-04-21 19:59 44.06796 9.18915 6461 ft 247 kts 173°
2026-04-21 19:59 44.05102 9.19267 6217 ft 246 kts 166°
2026-04-21 19:59 44.03679 9.20503 6050 ft 246 kts 126°
2026-04-21 20:00 44.03127 9.22728 6017 ft 249 kts 88°
2026-04-21 20:00 44.03538 9.25018 6022 ft 243 kts 63°
2026-04-21 20:00 44.04505 9.26870 6013 ft 234 kts 42°
2026-04-21 20:00 44.05728 9.28306 6014 ft 228 kts 37°
2026-04-21 20:01 44.06969 9.29660 6011 ft 226 kts 37°
2026-04-21 20:01 44.08197 9.31008 6001 ft 225 kts 37°
2026-04-21 20:01 44.09430 9.32379 6016 ft 229 kts 37°
2026-04-21 20:01 44.10679 9.33781 6021 ft 232 kts 38°
2026-04-21 20:02 44.11932 9.35195 6010 ft 231 kts 38°
2026-04-21 20:02 44.13179 9.36604 6003 ft 230 kts 37°
2026-04-21 20:02 44.14579 9.37587 5994 ft 225 kts
2026-04-21 20:02 44.16086 9.37296 6016 ft 221 kts 335°
2026-04-21 20:03 44.17390 9.36206 6021 ft 225 kts 323°
2026-04-21 20:03 44.18640 9.34872 6023 ft 226 kts 322°
2026-04-21 20:03 44.19881 9.33529 6009 ft 226 kts 322°
2026-04-21 20:03 44.21124 9.32197 6003 ft 224 kts 322°
2026-04-21 20:04 44.22330 9.30903 5985 ft 213 kts 322°
2026-04-21 20:04 44.23468 9.29692 6001 ft 198 kts 322°
2026-04-21 20:04 44.24542 9.28552 6023 ft 193 kts 322°
2026-04-21 20:04 44.25615 9.27415 6010 ft 194 kts 322°
2026-04-21 20:05 44.26687 9.26279 6016 ft 193 kts 322°
2026-04-21 20:05 44.27755 9.25148 6013 ft 193 kts 322°
2026-04-21 20:05 44.28821 9.24018 6016 ft 193 kts 322°
2026-04-21 20:05 44.29890 9.22888 6011 ft 193 kts 322°
2026-04-21 20:06 44.30960 9.21756 6020 ft 193 kts 322°
2026-04-21 20:06 44.32029 9.20624 6020 ft 193 kts 322°
2026-04-21 20:06 44.33095 9.19489 6018 ft 193 kts 319°
2026-04-21 20:06 44.33829 9.18006 6021 ft 181 kts 291°
2026-04-21 20:07 44.34219 9.16396 6020 ft 172 kts 287°
2026-04-21 20:07 44.34562 9.14836 6017 ft 164 kts 287°
2026-04-21 20:07 44.34890 9.13338 6006 ft 160 kts 287°
2026-04-21 20:07 44.35216 9.11849 6025 ft 161 kts 287°
2026-04-21 20:08 44.35549 9.10334 6040 ft 165 kts 287°
2026-04-21 20:08 44.35670 9.08764 5994 ft 163 kts 255°
2026-04-21 20:08 44.35328 9.07251 6032 ft 167 kts 253°
2026-04-21 20:08 44.34973 9.05689 6044 ft 171 kts 253°
2026-04-21 20:09 44.34614 9.04106 6032 ft 171 kts 253°
2026-04-21 20:09 44.34254 9.02518 6030 ft 172 kts 253°
2026-04-21 20:09 44.33894 9.00928 6026 ft 172 kts 253°
2026-04-21 20:09 44.33534 8.99339 6022 ft 171 kts 253°
2026-04-21 20:10 44.33175 8.97755 6020 ft 171 kts 253°
2026-04-21 20:10 44.32817 8.96178 6020 ft 170 kts 253°
2026-04-21 20:10 44.32460 8.94609 6021 ft 170 kts 253°
2026-04-21 20:10 44.32102 8.93032 6025 ft 170 kts 253°
2026-04-21 20:11 44.31688 8.91477 6015 ft 173 kts 238°
2026-04-21 20:11 44.30738 8.90494 6046 ft 182 kts 193°
2026-04-21 20:11 44.29340 8.90625 6037 ft 219 kts 160°
2026-04-21 20:11 44.27930 8.91511 6014 ft 225 kts 154°
2026-04-21 20:12 44.26528 8.92479 5974 ft 225 kts 154°
2026-04-21 20:12 44.25146 8.93462 6011 ft 222 kts 154°
2026-04-21 20:12 44.23776 8.94447 6007 ft 221 kts 153°
2026-04-21 20:12 44.22416 8.95429 6009 ft 220 kts 153°
2026-04-21 20:13 44.21065 8.96408 6015 ft 219 kts 153°
2026-04-21 20:13 44.19717 8.97386 6018 ft 218 kts 153°
2026-04-21 20:13 44.18374 8.98359 6020 ft 218 kts 153°
2026-04-21 20:13 44.17030 8.99333 6022 ft 218 kts 153°
2026-04-21 20:14 44.15681 9.00310 6025 ft 219 kts 153°
2026-04-21 20:14 44.14324 9.01291 6030 ft 220 kts 153°
2026-04-21 20:14 44.12959 9.02277 6023 ft 222 kts 153°
2026-04-21 20:14 44.11601 9.03258 6027 ft 223 kts 153°
2026-04-21 20:15 44.10199 9.04270 6024 ft 225 kts 153°
2026-04-21 20:15 44.08830 9.05259 6022 ft 225 kts 153°
2026-04-21 20:15 44.07442 9.06280 6018 ft 226 kts 148°
2026-04-21 20:15 44.06386 9.07852 6015 ft 225 kts 114°
2026-04-21 20:16 44.06036 9.09951 6030 ft 223 kts 95°
2026-04-21 20:16 44.05897 9.12100 6019 ft 224 kts 94°
2026-04-21 20:16 44.05775 9.14248 6016 ft 224 kts 94°
2026-04-21 20:16 44.05656 9.16414 6016 ft 224 kts 94°
2026-04-21 20:17 44.05539 9.18566 6017 ft 224 kts 94°
2026-04-21 20:17 44.05423 9.20727 6017 ft 224 kts 94°
2026-04-21 20:17 44.05306 9.22893 6016 ft 224 kts 94°
2026-04-21 20:17 44.05190 9.25056 6018 ft 224 kts 94°
2026-04-21 20:18 44.05112 9.26508 6018 ft 224 kts 94°
2026-04-21 20:18 44.04956 9.29374 6019 ft 224 kts 94°
2026-04-21 20:18 44.04839 9.31530 6019 ft 224 kts 94°
2026-04-21 20:18 44.04722 9.33688 6020 ft 224 kts 94°
2026-04-21 20:19 44.04605 9.35843 6021 ft 224 kts 94°
2026-04-21 20:19 44.04499 9.37999 6020 ft 223 kts 88°
2026-04-21 20:19 44.04892 9.40038 6018 ft 219 kts 54°
2026-04-21 20:19 44.05873 9.41632 6030 ft 217 kts 44°
2026-04-21 20:20 44.06935 9.43136 6025 ft 218 kts 44°
2026-04-21 20:20 44.08008 9.44638 6023 ft 219 kts 44°
2026-04-21 20:20 44.09089 9.46139 6021 ft 220 kts 41°
2026-04-21 20:20 44.10417 9.47076 6007 ft 216 kts
2026-04-21 20:21 44.11810 9.46514 6017 ft 213 kts 319°
2026-04-21 20:21 44.12799 9.45003 6033 ft 212 kts 313°
2026-04-21 20:21 44.13848 9.43553 6029 ft 213 kts 316°
2026-04-21 20:21 44.14920 9.42123 6024 ft 215 kts 316°
2026-04-21 20:22 44.16007 9.40686 6022 ft 216 kts 316°
2026-04-21 20:22 44.18194 9.37809 6017 ft 217 kts 316°
2026-04-21 20:22 44.19292 9.36370 6016 ft 216 kts 316°
2026-04-21 20:23 44.20384 9.34940 6015 ft 216 kts 316°
2026-04-21 20:23 44.21479 9.33507 6014 ft 216 kts 316°
2026-04-21 20:23 44.22575 9.32073 6014 ft 215 kts 316°
2026-04-21 20:23 44.23665 9.30650 6021 ft 215 kts 316°
2026-04-21 20:24 44.24752 9.29228 6021 ft 214 kts 316°
2026-04-21 20:24 44.25839 9.27806 6021 ft 214 kts 316°
2026-04-21 20:24 44.26924 9.26385 6018 ft 214 kts 316°
2026-04-21 20:24 44.28011 9.24963 6022 ft 214 kts 317°
2026-04-21 20:25 44.29143 9.23615 6026 ft 214 kts 322°
2026-04-21 20:25 44.30325 9.22377 6050 ft 211 kts 323°
2026-04-21 20:25 44.31509 9.21141 5967 ft 215 kts 323°
2026-04-21 20:25 44.32700 9.19893 5779 ft 218 kts 322°
2026-04-21 20:26 44.33737 9.18355 5522 ft 220 kts 296°
2026-04-21 20:26 44.34222 9.16312 5199 ft 219 kts 287°
2026-04-21 20:26 44.34686 9.14256 4705 ft 226 kts 288°
2026-04-21 20:26 44.35158 9.12169 4156 ft 230 kts 287°
2026-04-21 20:27 44.35630 9.10011 3765 ft 226 kts 287°
2026-04-21 20:27 44.36071 9.07970 3461 ft 218 kts 287°
2026-04-21 20:27 44.36506 9.05960 3146 ft 214 kts 287°
2026-04-21 20:27 44.36931 9.03998 2843 ft 209 kts 287°
2026-04-21 20:28 44.37346 9.02081 2536 ft 204 kts 287°
2026-04-21 20:28 44.37747 9.00233 2268 ft 192 kts 287°
2026-04-21 20:28 44.38122 8.98509 2022 ft 177 kts 287°
2026-04-21 20:28 44.38465 8.96927 1752 ft 162 kts 287°
2026-04-21 20:29 44.38778 8.95488 1525 ft 148 kts 287°
2026-04-21 20:29 44.39072 8.94139 1332 ft 143 kts 288°
2026-04-21 20:29 44.39362 8.92805 1150 ft 144 kts 287°
2026-04-21 20:29 44.39656 8.91456 942 ft 145 kts 287°
2026-04-21 20:30 44.39946 8.90126 754 ft 142 kts 287°
2026-04-21 20:30 44.40235 8.88801 537 ft 142 kts 287°
2026-04-21 20:30 44.40524 8.87481 329 ft 142 kts 287°
2026-04-21 20:30 44.40807 8.86157 133 ft 142 kts 285°
2026-04-21 20:31 44.41063 8.84850 8 ft 128 kts 285°
2026-04-21 20:31 44.41176 8.84272 11 ft 67 kts 285°
2026-04-21 20:31 44.41276 8.83838 11 ft 31 kts 306°
2026-04-21 20:31 44.41383 8.83746 9 ft 13 kts 14°
2026-04-21 20:32 44.41417 8.83848 9 ft 13 kts 99°
2026-04-21 20:32 44.41397 8.83952 11 ft 8 kts 106°
2026-04-21 20:32 44.41382 8.84027 11 ft 8 kts 105°
2026-04-21 20:32 44.41368 8.84099 11 ft 8 kts 105°
2026-04-21 20:33 44.41354 8.84170 10 ft 8 kts 105°
2026-04-21 20:33 44.41327 8.84311 10 ft 19 kts 105°
2026-04-21 20:33 44.41350 8.84467 9 ft 17 kts 52°
2026-04-21 20:33 44.41419 8.84594 9 ft 16 kts 52°
2026-04-21 20:34 44.41483 8.84709 9 ft 6 kts 52°
2026-04-21 20:34 44.41489 8.84719 9 ft 6 kts 52°
2026-04-21 20:34 44.41523 8.84793 9 ft 8 kts 80°
2026-04-21 20:34 44.41504 8.84855 9 ft 6 kts 118°
2026-04-21 20:35 44.41495 8.84902 9 ft 2 kts 105°
2026-04-21 20:35 44.41491 8.84919 9 ft 2 kts 106°
2026-04-21 20:35 44.41490 8.84923 9 ft 0 kts 106°